COSMOS 1344

导读

COSMOS 1344(宇宙1344)是苏联(CIS)发射的一颗卫星,隶属于宇宙卫星系列,于1982年3月24日北京时间08:00发射入轨。自1962年首颗Cosmos卫星发射后,苏联习惯将各类卫星统一纳入该系列命名,以此隐蔽卫星的真实任务属性。该系列绝大多数卫星已退役,成为太空漂浮的空间碎片,部分核动力卫星曾因失控坠入地球引发核安全担忧。

基本信息
目录编号:
13110
目录名称:
COSMOS 1344
国际标识:
1982-024A
轨道中心:
EARTH
卫星名称:
COSMOS 1344
卫星全名:
--
卫星状态:
在轨 (已飞行16151 天)
发射日期:
1982-03-24 UTC
国别 :
俄罗斯(独联体) (CIS)
星等 :
--
轨道信息
数据来源 国际轨道数据 AOE轨道数据
星历时间 2026-06-12T14:06:09+0800
13小时前
查看轨道信息
2026-06-12T00:00:00+0800
1天前
查看轨道信息
半长轴 7362.535km 7362.532km
偏心率 0.0028611 0.0028572
轨道倾角 82.923° 82.922°
近地点辐角 2.286° 3.960°
升交点赤经 62.116° 62.552°
平近点角 114.265° 87.176°
近地点 963.333km 963.358km
远地点 1005.463km 1005.432km
周期 104.785分钟 104.785分钟
每日圈数 13.742373 13.742381
详细信息
使用方式:
暂无
2D轨道图
3D轨道图
轨道高度分析图
轨道倾角分析图
轨道综合分析图
查看轨道综合分析图